FENGYUN 1C DEB, 31753

Orbit data source: Space-Track

FENGYUN 1C DEB, 31753 is space debris in SSO originally from a launch on Mon, 10 May 1999 UTC launched from the Taiyaun Space Center, China (TSC). Fengyun 1C debris stems from the Chinese weather satellite Fengyun-1C, which was intentionally destroyed by a Chinese anti-satellite missile in 2007. This event dramatically increased the amount of space debris, with thousands of trackable fragments posing hazards to satellites and human spaceflight. The Fengyun 1C debris cloud has become a focal point in discussions about space sustainability and the need for international regulations to prevent the creation of new debris.

Loading next visibility...
Identifier
31753, 1999-025CFC
Orbit
SSO
Country
Flag of CNCN / PRC
Related business
Manufacturer
Unknown
Mission
Spacecraft
Bus & Motor
Unknown
Mass
Unknown
Launch date (UTC)
1999-05-10 (27 years ago)
Launch vehicle
Unknown
Launch site
Taiyaun Space Center, China (TSC)
Object type
Payload
Rocket body
Debris
Shape & HBR
Unknown shape, 0.1 m
Radar Cross Section
Medium (>0.1 m² and <1 m²)

Expand to show TLE details & history
Last TLE update: 1 day ago

TLE from 1 day ago
0 FENGYUN 1C DEB
1 31753U 99025CFC 26207.33282588  .00000480  00000-0  22232-3 0  9996
2 31753  98.6070 239.2561 0157347 243.3001 129.3528 14.18904457992181
Epoch: 2026-07-26T07:59Z
TLE epoch observation values (Epoch: 2026-07-26T07:59:16.156Z)
Latitude
13.83704°
Longitude
173.28113°
Altitude
904.213 km
Speed
7.363 km/s
True Right ascension
15h 48m 31s
True Declination
13° 45' 32"
Sunlit
Object was in daylight at epoch
Visualization orbit readout
Latitude
Unknown
Longitude
Unknown
Altitude
Unknown
Speed
Unknown
Apparent Right ascension
Unknown
Apparent Declination
Unknown
Sunlit
N/A
Visualization observer readout
Local Sidereal Time
22:27:21
Azimuth
Unknown
Elevation
Unknown
Doppler factor
Unknown
Orbital elements
Apogee altitude
939.573 km
Perigee altitude
712.856 km
Semi-major axis
7,204.351 km
Eccentricity
0.01573
Inclination
98.607°
RAAN
239.2561°
Arg. of periapsis
243.3001°
True anomaly
130.72972°
Mean anomaly
129.3528°
Eccentric anomaly
130.04298°
Mean motion
3.54937 °/min
Orbital period
101.43 mins
BSTAR
0.00022232
Loading maneuver chart data...
Computing Atmospheric mass density...

Documentation

Showing up to 5 results
|